Weather observations for the past three days for
Hot Springs, Memorial Field Airport
Imperial (Metric)
Date Time (cdt) Wind (mph) Vis. (mi.) Weather Sky Cond. Temperature (ºF) Relative Humidity Wind Chill (°F) Heat Index (°F) Pressure Precipitation (in)
Air Dwpt 6 hour altimeter (in) sea level (mb) 1 hr 3 hr 6 hr
Max. Min.
01 15:53 SE 12 G 21 10.00 Fair CLR 100 63 30% 102 29.99 1014.6
01 14:53 Vrbl 5 10.00 Fair CLR 99 66 34% 103 30 1015.1
01 13:53 Vrbl 7 G 17 10.00 Fair CLR 98.1 64.9 34% 101 30.02 1015.6
01 12:53 Vrbl 5 10.00 Fair CLR 97 68 97 75 39% 102 30.05 1016.6
01 11:53 S 5 10.00 A Few Clouds FEW050 95 69.1 43% 101 30.07 1017.5
01 10:53 Calm 10.00 Fair CLR 93 69.1 46% 98 30.09 1018.0
01 09:53 S 3 10.00 Fair CLR 89.1 70 53% 94 30.09 1018.0
01 08:53 Calm 10.00 Fair CLR 86 71.1 61% 92 30.09 1018.1
01 07:53 Calm 10.00 Fair CLR 79 70 74% 82 30.08 1017.9
01 06:53 Calm 10.00 Fair CLR 75.9 69.1 82.9 75.9 79% 77 30.07 1017.3
01 05:53 NW 3 10.00 Fair CLR 75.9 69.1 79% 77 30.06 1017.0
01 04:53 Calm 10.00 Fair CLR 78.1 69.1 74% 80 30.04 1016.5
01 03:53 Calm 10.00 Fair CLR 79 69.1 72% 82 30.04 1016.5
01 02:53 Calm 10.00 Fair CLR 80.1 69.1 69% 83 30.04 1016.4
01 01:53 E 5 10.00 Fair CLR 82 69.1 65% 85 30.04 1016.3
01 00:53 E 3 10.00 Fair CLR 82 69.1 95 81 65% 85 30.03 1016.1
31 23:53 E 5 10.00 Fair CLR 82.9 69.1 63% 87 30.03 1015.9
31 22:53 E 5 10.00 Fair CLR 84.9 68 57% 88 30.03 1015.9
31 21:53 E 6 10.00 Fair CLR 87.1 68 53% 91 30.02 1015.6
31 20:53 SE 6 10.00 Fair CLR 90 68 48% 94 30 1015.1
31 19:53 SE 8 10.00 Fair CLR 91.9 68 46% 96 29.99 1014.6
31 18:53 SE 12 G 20 10.00 Fair CLR 95 64.9 100 95 37% 98 29.98 1014.3
31 17:53 SE 10 G 17 10.00 Fair CLR 98.1 62.1 31% 99 29.97 1014.2
31 16:53 E 9 10.00 Fair CLR 99 62.1 30% 100 29.98 1014.3
31 15:53 E 7 10.00 Fair CLR 98.1 62.1 31% 99 29.99 1014.8
31 14:53 Vrbl 5 10.00 Fair CLR 99 64 32% 102 30.01 1015.3
31 13:53 E 10 10.00 Fair CLR 99 62.1 30% 100 30.03 1016.0
31 12:53 Calm 10.00 Fair CLR 97 63 100 75 33% 99 30.05 1016.8
31 11:53 Vrbl 5 10.00 Fair CLR 95 64.9 37% 98 30.07 1017.5
31 10:53 SE 6 10.00 Fair CLR 93 68 44% 97 30.08 1017.8
31 09:53 Vrbl 3 10.00 Fair CLR 89.1 68 50% 93 30.08 1018.0
31 08:53 E 6 10.00 Fair CLR 82.9 68 61% 86 30.08 1017.7
31 07:53 Calm 10.00 Fair CLR 80.1 68 67% 83 30.06 1017.2
31 06:53 E 3 10.00 Fair CLR 75 66 81 73.9 74% 76 30.05 1016.7
31 05:53 Calm 10.00 Fair CLR 75.9 66 72% 77 30.04 1016.3
31 04:53 Calm 10.00 Fair CLR 78.1 66 67% 80 30.03 1015.9
31 03:53 Calm 10.00 Fair CLR 79 64 60% 81 30.02 1015.6
31 02:53 E 3 10.00 Fair CLR 79 64 60% 81 30.01 1015.5
31 01:53 Calm 10.00 Fair CLR 79 63 58% 81 30.02 1015.8
31 00:53 E 6 10.00 Fair CLR 79 63 95 79 58% 81 30.02 1015.8
30 23:53 E 7 10.00 Fair CLR 81 63 54% 82 30.02 1015.7
30 22:53 E 7 10.00 Fair CLR 82 63 53% 83 30.01 1015.5
30 21:53 E 7 10.00 Fair CLR 82 64 55% 84 30 1015.0
30 20:53 E 7 10.00 Fair CLR 88 62.1 42% 88 29.98 1014.4
30 19:53 E 3 10.00 Fair CLR 91 57 32% 90 29.96 1013.9
30 18:53 SE 7 10.00 Fair CLR 95 55 99 93.9 26% 93 29.96 1013.9
30 17:53 S 7 10.00 Fair CLR 97 55.9 25% 95 29.96 1013.8
30 16:53 SE 10 10.00 Fair CLR 97 55 24% 95 29.97 1013.9
30 15:53 E 8 10.00 Fair CLR 98.1 57.9 26% 97 29.98 1014.4
30 14:53 Calm 10.00 Fair CLR 98.1 60.1 28% 98 30 1015.0
30 13:53 Calm 10.00 Fair CLR 95 61 32% 95 30.01 1015.5
30 12:53 Calm 10.00 Fair CLR 93.9 63 95 66.9 36% 95 30.03 1016.2
30 11:53 Vrbl 5 10.00 Fair CLR 91.9 63 38% 93 30.05 1016.9
30 10:53 Vrbl 3 10.00 Fair CLR 90 63 41% 91 30.06 1017.2
30 09:53 Vrbl 6 10.00 Fair CLR 86 63 46% 87 30.07 1017.5
30 08:53 Vrbl 3 10.00 Fair CLR 80.1 62.1 54% 81 30.08 1017.8
30 07:53 Calm 10.00 Fair CLR 72 62.1 71% 30.08 1017.8
30 06:53 Calm 10.00 Fair CLR 66.9 62.1 77 66.9 84% 30.07 1017.4
30 05:53 Calm 10.00 Fair CLR 69.1 62.1 78% 30.04 1016.5
30 04:53 Calm 10.00 Fair CLR 71.1 61 71% 30.04 1016.4
30 03:53 Calm 10.00 Fair CLR 73.9 60.1 62% 30.04 1016.3
30 02:53 E 5 10.00 Fair CLR 73.9 60.1 62% 30.04 1016.4
30 01:53 E 3 10.00 Fair CLR 75.9 59 56% 78 30.05 1016.7
30 00:53 E 5 10.00 Fair CLR 75.9 59 91.9 75 56% 78 30.05 1016.6
29 23:53 E 5 10.00 Fair CLR 77 60.1 56% 79 30.05 1016.6
29 22:53 E 6 10.00 Fair CLR 78.1 60.1 54% 79 30.04 1016.4
29 21:53 E 6 10.00 Fair CLR 80.1 60.1 51% 81 30.04 1016.3
29 20:53 E 7 10.00 Fair CLR 81 60.1 49% 82 30.02 1015.8
29 19:53 E 5 10.00 Fair CLR 88 59 38% 87 30.01 1015.4
29 18:53 SE 6 10.00 Fair CLR 91.9 57 96.1 91 31% 91 30.01 1015.4
29 17:53 Vrbl 7 10.00 Fair CLR 93.9 55 27% 92 30.01 1015.4
29 16:53 Vrbl 7 10.00 Fair CLR 95 55 26% 93 30.01 1015.4
Date Time (cdt) Wind (mph) Vis. (mi.) Weather Sky Cond. Air Dwpt Max. Min. Relative Humidity Wind Chill (°F) Heat Index (°F) altimeter (in) sea level (mb) 1 hr 3 hr 6 hr
6 hour
Temperature (ºF) Pressure Precipitation (in)